Nantucket, MA

10:04 PM EDT on June 25, 2017 (GMT -0400)
Nantucket Memorial

Weather History for KACK - November, 2010

Change the Weather History Date:

Wednesday, November 10, 2010

  Actual Average Record
Temperature  
Mean Temperature 46 °F -  
Max Temperature 48 °F 54 °F 65 °F (1950)
Min Temperature 44 °F 43 °F 26 °F (1954)
Degree Days  
Heating Degree Days 19    
Moisture  
Dew Point 43 °F    
Average Humidity 87    
Maximum Humidity 93    
Minimum Humidity 66    
Precipitation  
Precipitation 0.03 in - - ()
Sea Level Pressure  
Sea Level Pressure 29.92 in    
Wind  
Wind Speed 29 mph (NNE)    
Max Wind Speed 36 mph    
Max Gust Speed 47 mph    
Visibility 5 miles    
Events Rain    
Averages and records for this station are not official NWS values.
T = Trace of Precipitation, MM = Missing Value Source: NWS Daily Summary

Daily Weather History Graph

Daily Weather History Graph

Search for Another Location

Airport or City:

Trip Planner

Search our weather history database for the weather conditions in past years. The results will help you decide how hot, cold, wet, or windy it might be!

Date:

Astronomy

Nov. 10, 2010 Rise Set
Actual Time 6:22 AM EST 4:25 PM EST
Civil Twilight 5:52 AM EST 4:54 PM EST
Nautical Twilight 5:19 AM EST 5:27 PM EST
Astronomical Twilight 4:47 AM EST 6:00 PM EST
Moon 10:44 AM EST (11/10) 8:23 PM EST (11/10)
Length of Visible Light 11h 01m
Length of Day
10h 03m
Waxing Crescent, 22% of the Moon is Illuminated
Nov 10
Waxing Crescent
Nov 13
First Quarter
Nov 21
Full
Nov 28
Last Quarter
Dec 5
New

Hourly Weather History & Observations

Time (EST) Temp. Windchill Dew Point Humidity Pressure Visibility Wind Dir Wind Speed Gust Speed Precip Events Conditions
12:42 AM 48.2 °F - 46.4 °F 93% 29.76 in 6.0 mi North 29.9 mph 40.3 mph 0.00 in Rain Light Rain
12:53 AM 48.9 °F - 46.9 °F 93% 29.77 in 5.0 mi North 28.8 mph 41.4 mph 0.00 in Rain Light Rain
1:53 AM 48.0 °F - 46.0 °F 93% 29.79 in 3.0 mi North 27.6 mph 40.3 mph 0.00 in   Overcast
2:00 AM 48.2 °F - 46.4 °F 93% 29.79 in 3.0 mi North 27.6 mph 42.6 mph N/A   Overcast
3:10 AM 48.2 °F - 46.4 °F 93% 29.79 in 2.5 mi North 27.6 mph 41.4 mph N/A   Overcast
3:18 AM 48.2 °F - 46.4 °F 93% 29.79 in 3.0 mi North 28.8 mph 41.4 mph N/A   Overcast
3:53 AM 48.0 °F - 46.0 °F 93% 29.81 in 4.0 mi North 26.5 mph 38.0 mph 0.00 in Rain Light Rain
4:53 AM 48.0 °F - 46.0 °F 93% 29.83 in 3.0 mi NNE 27.6 mph 40.3 mph 0.00 in Rain Light Rain
5:00 AM 46.4 °F 37.7 °F 44.6 °F 93% 29.83 in 3.0 mi NNE 26.5 mph 40.3 mph 0.00 in Rain Light Rain
5:20 AM 46.4 °F 37.5 °F 44.6 °F 93% 29.84 in 2.5 mi North 27.6 mph 41.4 mph 0.00 in   Overcast
5:26 AM 46.4 °F 37.0 °F 44.6 °F 93% 29.84 in 3.0 mi North 31.1 mph 39.1 mph 0.00 in   Overcast
5:53 AM 46.9 °F - 45.0 °F 93% 29.84 in 3.0 mi NNE 28.8 mph 38.0 mph 0.00 in   Overcast
6:07 AM 46.4 °F 37.7 °F 44.6 °F 93% 29.85 in 4.0 mi North 26.5 mph 39.1 mph 0.00 in Rain Light Rain
6:53 AM 46.9 °F - 44.1 °F 90% 29.87 in 4.0 mi North 27.6 mph 40.3 mph 0.00 in Rain Light Rain
7:01 AM 46.4 °F 37.9 °F 44.6 °F 93% 29.87 in 5.0 mi North 25.3 mph 41.4 mph 0.00 in Rain Light Rain
7:10 AM 46.4 °F 37.5 °F 44.6 °F 93% 29.88 in 3.0 mi North 27.6 mph 41.4 mph 0.00 in Rain Light Rain
7:20 AM 46.4 °F 36.7 °F 44.6 °F 93% 29.88 in 3.0 mi North 33.4 mph 41.4 mph 0.00 in Rain Light Rain
7:22 AM 46.4 °F 37.4 °F 44.6 °F 93% 29.88 in 2.5 mi North 28.8 mph 41.4 mph 0.00 in Rain Light Rain
7:53 AM 46.0 °F 37.0 °F 44.1 °F 93% 29.90 in 3.0 mi North 27.6 mph 43.7 mph 0.00 in Rain Light Rain
8:02 AM 46.4 °F 37.2 °F 44.6 °F 93% 29.90 in 5.0 mi North 29.9 mph 40.3 mph 0.00 in Rain Light Rain
8:06 AM 46.4 °F 37.5 °F 44.6 °F 93% 29.90 in 2.5 mi North 27.6 mph 40.3 mph 0.00 in   Overcast
8:09 AM 46.4 °F 36.9 °F 44.6 °F 93% 29.90 in 3.0 mi North 32.2 mph 41.4 mph 0.00 in   Overcast
8:53 AM 46.0 °F 36.4 °F 44.1 °F 93% 29.91 in 3.0 mi North 32.2 mph 40.3 mph 0.02 in Rain Light Rain
8:55 AM 46.4 °F 37.5 °F 44.6 °F 93% 29.90 in 2.0 mi North 27.6 mph 39.1 mph 0.00 in Rain Light Rain
9:10 AM 46.4 °F 36.4 °F 44.6 °F 93% 29.91 in 3.0 mi North 35.7 mph 47.2 mph 0.01 in Rain Light Rain
9:13 AM 46.4 °F 36.7 °F 44.6 °F 93% 29.91 in 3.0 mi North 33.4 mph 47.2 mph 0.01 in Rain Light Rain
9:38 AM 46.4 °F 37.2 °F 44.6 °F 93% 29.92 in 3.0 mi North 29.9 mph 38.0 mph 0.01 in Rain Light Rain
9:53 AM 46.0 °F 36.5 °F 43.0 °F 89% 29.92 in 2.5 mi North 31.1 mph 44.9 mph 0.01 in   Overcast
10:01 AM 46.4 °F 37.0 °F 44.6 °F 93% 29.93 in 1.8 mi North 31.1 mph 44.9 mph N/A   Overcast
10:18 AM 46.4 °F 37.0 °F 44.6 °F 93% 29.93 in 2.5 mi North 31.1 mph 47.2 mph 0.00 in Rain Light Rain
10:25 AM 46.4 °F 37.5 °F 42.8 °F 87% 29.93 in 3.0 mi North 27.6 mph 42.6 mph 0.00 in Rain Light Rain
10:53 AM 46.0 °F 36.4 °F 43.0 °F 89% 29.93 in 2.5 mi North 32.2 mph 44.9 mph 0.00 in   Overcast
10:57 AM 46.4 °F 37.5 °F 42.8 °F 87% 29.93 in 3.0 mi NNE 27.6 mph 44.9 mph 0.00 in Rain Light Rain
11:15 AM 44.6 °F 34.6 °F 42.8 °F 93% 29.93 in 4.0 mi North 31.1 mph 42.6 mph 0.00 in Rain Light Rain
11:22 AM 46.4 °F 37.5 °F 42.8 °F 87% 29.93 in 4.0 mi NNE 27.6 mph 39.1 mph 0.00 in Rain Light Rain
11:53 AM 45.0 °F 35.8 °F 43.0 °F 93% 29.94 in 3.0 mi NNE 26.5 mph 38.0 mph 0.00 in   Overcast
12:53 PM 45.0 °F 34.9 °F 41.0 °F 86% 29.95 in 4.0 mi North 32.2 mph 43.7 mph 0.00 in   Overcast
1:53 PM 45.0 °F 35.1 °F 41.0 °F 86% 29.96 in 4.0 mi North 31.1 mph 41.4 mph 0.00 in   Overcast
2:53 PM 45.0 °F 35.4 °F 41.0 °F 86% 29.98 in 8.0 mi North 28.8 mph 44.9 mph 0.00 in Rain Light Rain
3:53 PM 46.0 °F 36.7 °F 39.0 °F 76% 30.00 in 10.0 mi North 29.9 mph 43.7 mph 0.00 in   Overcast
4:53 PM 46.0 °F 36.7 °F 37.9 °F 73% 30.01 in 10.0 mi NNE 29.9 mph 41.4 mph N/A   Overcast
5:53 PM 46.0 °F 36.9 °F 37.9 °F 73% 30.04 in 10.0 mi North 28.8 mph 40.3 mph N/A   Overcast
6:53 PM 46.0 °F 36.4 °F 37.0 °F 71% 30.04 in 10.0 mi North 32.2 mph 43.7 mph 0.00 in Rain Light Rain
7:07 PM 44.6 °F 35.3 °F 39.2 °F 81% 30.04 in 7.0 mi North 26.5 mph 42.6 mph 0.00 in Rain Light Rain
7:15 PM 44.6 °F 34.4 °F 39.2 °F 81% 30.04 in 9.0 mi North 32.2 mph 40.3 mph 0.00 in Rain Light Rain
7:53 PM 46.0 °F 36.7 °F 37.0 °F 71% 30.05 in 10.0 mi North 29.9 mph 40.3 mph 0.00 in   Overcast
8:53 PM 46.9 °F - 36.0 °F 66% 30.06 in 10.0 mi North 35.7 mph 47.2 mph N/A   Overcast
9:53 PM 46.0 °F 36.5 °F 37.0 °F 71% 30.08 in 10.0 mi North 31.1 mph 40.3 mph N/A   Overcast
10:05 PM 46.4 °F 37.4 °F 37.4 °F 71% 30.08 in 10.0 mi NNE 28.8 mph 40.3 mph N/A   Overcast
10:53 PM 46.0 °F 36.9 °F 37.0 °F 71% 30.11 in 10.0 mi NNE 28.8 mph 44.9 mph N/A   Overcast
11:53 PM 45.0 °F 34.9 °F 37.0 °F 74% 30.12 in 10.0 mi NNE 32.2 mph 46.0 mph N/A   Overcast